When you browse on this site, cookies collect data to enhance your experience and personalize the content and advertising you see.
Visit our Privacy Policy to learn more. By continuing to use the site, you agree to this use of cookies and data.
  • In United Kingdom
  • List of Countries
  • For 7 days
  • Water Temperature
  • Satellite Maps
  • Weather Map
  • Weather Widgets
  • user-avatar
    Login

    Hourly Weather Santos Reyes Nopala

    Today, 16 January, Wednesday

    Time Temperature Precipitation Wind Pressure Humidity
    00:00 +23°C° 0 mm 2 mps 721 mmHg 65%
    01:00 +23°C° 0 mm 2 mps 720 mmHg 65%
    02:00 +23°C° 0 mm 2 mps 720 mmHg 66%
    03:00 +21°C° 0 mm 2 mps 720 mmHg 66%
    04:00 +21°C° 0 mm 2 mps 720 mmHg 66%
    05:00 +21°C° 0 mm 2 mps 720 mmHg 67%
    06:00 +21°C° 0 mm 2 mps 720 mmHg 68%
    07:00 +23°C° 0 mm 2 mps 720 mmHg 63%
    08:00 +25°C° 0 mm 2 mps 721 mmHg 58%
    09:00 +27°C° 0 mm 2 mps 721 mmHg 54%
    10:00 +29°C° 0 mm 1 mps 721 mmHg 47%
    11:00 +31°C° 0 mm 1 mps 721 mmHg 40%
    12:00 +34°C° 0 mm 1 mps 721 mmHg 33%
    13:00 +33°C° 0 mm 1 mps 721 mmHg 36%
    14:00 +34°C° 0 mm 2 mps 720 mmHg 38%
    15:00 +32°C° 0 mm 2 mps 719 mmHg 40%
    16:00 +30°C° 0 mm 2 mps 719 mmHg 50%
    17:00 +28°C° 0 mm 1 mps 719 mmHg 61%
    18:00 +26°C° 0 mm 1 mps 718 mmHg 71%
    19:00 +25°C° 0 mm 1 mps 719 mmHg 73%
    20:00 +25°C° 0 mm 1 mps 719 mmHg 74%
    21:00 +24°C° 0 mm 1 mps 720 mmHg 76%
    22:00 +24°C° 0 mm 1 mps 720 mmHg 74%
    23:00 +23°C° 0 mm 1 mps 720 mmHg 71%

    Tomorrow, 17 January, Thursday

    Time Temperature Precipitation Wind Pressure Humidity
    00:00 +23°C° 0 mm 2 mps 720 mmHg 69%
    01:00 +23°C° 0 mm 2 mps 720 mmHg 68%
    02:00 +23°C° 0 mm 2 mps 720 mmHg 68%
    03:00 +21°C° 0 mm 2 mps 720 mmHg 67%
    04:00 +21°C° 0 mm 2 mps 720 mmHg 68%
    05:00 +21°C° 0 mm 2 mps 720 mmHg 69%
    06:00 +21°C° 0 mm 2 mps 720 mmHg 69%
    07:00 +24°C° 0 mm 2 mps 720 mmHg 65%
    08:00 +25°C° 0 mm 2 mps 720 mmHg 60%
    09:00 +27°C° 0 mm 1 mps 721 mmHg 56%
    10:00 +29°C° 0 mm 1 mps 721 mmHg 49%
    11:00 +31°C° 0 mm 1 mps 721 mmHg 42%
    12:00 +33°C° 0 mm 1 mps 721 mmHg 36%
    13:00 +32°C° 0 mm 1 mps 720 mmHg 38%
    14:00 +32°C° 0 mm 2 mps 720 mmHg 41%
    15:00 +31°C° 0 mm 2 mps 719 mmHg 43%
    16:00 +29°C° 0.1 mm 2 mps 719 mmHg 54%
    17:00 +28°C° 0.1 mm 1 mps 719 mmHg 64%
    18:00 +26°C° 0.1 mm 1 mps 719 mmHg 74%
    19:00 +25°C° 0.1 mm 1 mps 719 mmHg 76%
    20:00 +24°C° 0.1 mm 1 mps 720 mmHg 79%
    21:00 +23°C° 0.1 mm 1 mps 720 mmHg 81%
    22:00 +23°C° 0 mm 1 mps 720 mmHg 79%
    23:00 +23°C° 0 mm 1 mps 720 mmHg 77%

    Day after tomorrow, 18 January, Friday

    Time Temperature Precipitation Wind Pressure Humidity
    00:00 +23°C° 0 mm 1 mps 720 mmHg 76%
    01:00 +23°C° 0 mm 1 mps 720 mmHg 75%
    02:00 +21°C° 0 mm 2 mps 719 mmHg 74%
    03:00 +21°C° 0 mm 2 mps 719 mmHg 73%
    04:00 +21°C° 0 mm 2 mps 719 mmHg 72%
    05:00 +21°C° 0 mm 2 mps 719 mmHg 71%
    06:00 +23°C° 0 mm 2 mps 719 mmHg 70%
    07:00 +24°C° 0 mm 1 mps 719 mmHg 66%
    08:00 +25°C° 0 mm 1 mps 720 mmHg 62%
    09:00 +27°C° 0 mm 1 mps 720 mmHg 58%
    10:00 +28°C° 0 mm 1 mps 720 mmHg 53%
    11:00 +30°C° 0 mm 1 mps 720 mmHg 47%
    12:00 +32°C° 0 mm 1 mps 720 mmHg 41%
    13:00 +32°C° 0 mm 1 mps 719 mmHg 43%
    14:00 +32°C° 0 mm 2 mps 718 mmHg 44%
    15:00 +32°C° 0 mm 2 mps 717 mmHg 46%
    16:00 +30°C° 0 mm 2 mps 717 mmHg 55%
    17:00 +28°C° 0 mm 1 mps 717 mmHg 65%
    18:00 +26°C° 0 mm 1 mps 717 mmHg 75%
    19:00 +25°C° 0 mm 1 mps 717 mmHg 79%
    20:00 +24°C° 0 mm 1 mps 718 mmHg 84%
    21:00 +23°C° 0 mm 1 mps 718 mmHg 88%
    22:00 +23°C° 0 mm 1 mps 718 mmHg 87%
    23:00 +23°C° 0 mm 1 mps 718 mmHg 86%

    19 January, Saturday

    Time Temperature Precipitation Wind Pressure Humidity
    00:00 +23°C° 0 mm 1 mps 718 mmHg 85%
    01:00 +23°C° 0 mm 1 mps 718 mmHg 84%
    02:00 +22°C° 0 mm 1 mps 717 mmHg 83%
    03:00 +22°C° 0 mm 1 mps 717 mmHg 81%
    04:00 +22°C° 0 mm 1 mps 717 mmHg 80%
    05:00 +22°C° 0 mm 1 mps 717 mmHg 78%
    06:00 +22°C° 0 mm 1 mps 717 mmHg 77%
    07:00 +24°C° 0 mm 1 mps 717 mmHg 69%
    08:00 +26°C° 0 mm 1 mps 718 mmHg 61%
    09:00 +26°C° 0 mm 0 mps 719 mmHg 54%
    10:00 +30°C° 0 mm 1 mps 719 mmHg 47%
    11:00 +31°C° 0 mm 1 mps 719 mmHg 41%
    12:00 +34°C° 0 mm 2 mps 718 mmHg 35%
    13:00 +32°C° 0 mm 2 mps 718 mmHg 37%
    14:00 +32°C° 0 mm 2 mps 717 mmHg 39%
    15:00 +32°C° 0 mm 2 mps 716 mmHg 41%
    16:00 +30°C° 0 mm 2 mps 716 mmHg 51%
    17:00 +28°C° 0 mm 1 mps 716 mmHg 61%
    18:00 +26°C° 0 mm 1 mps 716 mmHg 71%
    19:00 +25°C° 0 mm 1 mps 717 mmHg 73%
    20:00 +25°C° 0 mm 1 mps 718 mmHg 75%
    21:00 +24°C° 0 mm 1 mps 718 mmHg 78%
    22:00 +24°C° 0 mm 1 mps 719 mmHg 76%
    23:00 +24°C° 0 mm 1 mps 719 mmHg 73%

    20 January, Sunday

    Time Temperature Precipitation Wind Pressure Humidity
    00:00 +23°C° 0 mm 1 mps 719 mmHg 71%
    01:00 +23°C° 0 mm 1 mps 719 mmHg 70%
    02:00 +23°C° 0 mm 1 mps 719 mmHg 69%
    03:00 +23°C° 0 mm 1 mps 718 mmHg 67%
    04:00 +23°C° 0 mm 1 mps 719 mmHg 68%
    05:00 +23°C° 0 mm 1 mps 719 mmHg 68%
    06:00 +22°C° 0 mm 1 mps 719 mmHg 69%
    07:00 +24°C° 0 mm 1 mps 720 mmHg 64%
    08:00 +25°C° 0 mm 1 mps 721 mmHg 59%
    09:00 +27°C° 0 mm 1 mps 721 mmHg 55%
    10:00 +29°C° 0 mm 1 mps 721 mmHg 48%
    11:00 +31°C° 0 mm 1 mps 722 mmHg 42%
    12:00 +33°C° 0 mm 1 mps 722 mmHg 35%
    13:00 +33°C° 0 mm 1 mps 721 mmHg 37%
    14:00 +34°C° 0 mm 2 mps 720 mmHg 39%
    15:00 +34°C° 0 mm 2 mps 719 mmHg 40%
    16:00 +31°C° 0 mm 2 mps 719 mmHg 50%
    17:00 +29°C° 0 mm 1 mps 719 mmHg 60%
    18:00 +27°C° 0 mm 1 mps 719 mmHg 70%
    19:00 +25°C° 0.1 mm 1 mps 720 mmHg 68%
    20:00 +24°C° 0.1 mm 2 mps 720 mmHg 66%
    21:00 +23°C° 0.1 mm 2 mps 721 mmHg 63%
    22:00 +21°C° 0 mm 2 mps 720 mmHg 57%
    23:00 +21°C° 0 mm 2 mps 720 mmHg 50%

    21 January, Monday

    Time Temperature Precipitation Wind Pressure Humidity
    00:00 +20°C° 0 mm 3 mps 720 mmHg 44%
    01:00 +20°C° 0 mm 3 mps 720 mmHg 47%
    02:00 +19°C° 0 mm 3 mps 719 mmHg 50%
    03:00 +19°C° 0 mm 3 mps 719 mmHg 53%
    04:00 +19°C° 0 mm 3 mps 719 mmHg 52%
    05:00 +18°C° 0 mm 2 mps 719 mmHg 51%
    06:00 +18°C° 0 mm 2 mps 719 mmHg 50%
    07:00 +20°C° 0 mm 2 mps 720 mmHg 44%
    08:00 +21°C° 0 mm 2 mps 720 mmHg 38%
    09:00 +24°C° 0 mm 2 mps 721 mmHg 32%
    10:00 +27°C° 0 mm 2 mps 721 mmHg 27%
    11:00 +30°C° 0 mm 1 mps 721 mmHg 22%
    12:00 +33°C° 0 mm 1 mps 721 mmHg 17%
    13:00 +33°C° 0 mm 1 mps 720 mmHg 23%
    14:00 +32°C° 0 mm 2 mps 719 mmHg 28%
    15:00 +31°C° 0 mm 2 mps 718 mmHg 33%
    16:00 +29°C° 0 mm 2 mps 718 mmHg 46%
    17:00 +27°C° 0 mm 1 mps 718 mmHg 59%
    18:00 +25°C° 0 mm 1 mps 718 mmHg 71%
    19:00 +24°C° 0 mm 1 mps 718 mmHg 76%
    20:00 +23°C° 0 mm 1 mps 719 mmHg 81%
    21:00 +22°C° 0 mm 1 mps 719 mmHg 85%
    22:00 +21°C° 0 mm 1 mps 719 mmHg 81%
    23:00 +21°C° 0 mm 1 mps 719 mmHg 77%
    Show more